CW0858 Weather Reports


Display with metric or nautical units.
time (UTC)temp
F
wind
direction
speed
MPH
gust
MPH
rain 1hr
in
rain 24hr
in
rain mn
in
humidity
%
barometer
mb
20260901173043 61 0 0.0 1.0 0.00 0.00 0.00 86 1011.9
20260901171533 60 0 0.0 1.0 0.00 0.00 0.00 87 1011.9
20260901170035 60 0 0.0 0.0 0.00 0.00 0.00 88 1011.8
20260901164537 59 0 0.0 0.0 0.00 0.00 0.00 91 1011.8
20260901163034 59 0 0.0 0.0 0.00 0.00 0.00 91 1012.0
20260901161535 58 0 0.0 0.0 0.00 0.00 0.00 91 1012.0
20260901160038 58 0 0.0 0.0 0.00 0.00 0.00 91 1012.0
20260901154537 58 0 0.0 0.0 0.00 0.00 0.00 91 1012.0
20260901153038 58 0 0.0 0.0 0.00 0.00 0.00 90 1011.9
20260901151535 59 0 0.0 0.0 0.00 0.00 0.00 88 1011.8
20260901150037 59 0 0.0 0.0 0.00 0.00 0.00 86 1011.5
20260901144537 59 0 0.0 0.0 0.00 0.00 0.00 85 1011.4
20260901143041 59 0 0.0 0.0 0.00 0.00 0.00 85 1011.4
20260901141534 59 0 0.0 0.0 0.00 0.00 0.00 85 1011.3
20260901140035 58 0 0.0 0.0 0.00 0.00 0.00 85 1011.3
20260901134535 58 0 0.0 0.0 0.00 0.00 0.00 85 1011.2
20260901133042 58 0 0.0 0.0 0.00 0.00 0.00 85 1011.2
20260901131535 58 0 0.0 0.0 0.00 0.00 0.00 85 1011.1
20260901130034 58 0 0.0 0.0 0.00 0.00 0.00 85 1011.1
20260901124538 58 0 0.0 0.0 0.00 0.00 0.00 84 1010.9
20260901123031 58 0 0.0 0.0 0.00 0.00 0.00 85 1011.0
20260901121545 58 0 0.0 0.0 0.00 0.00 0.00 85 1011.0
20260901120031 58 0 0.0 1.0 0.00 0.00 0.00 86 1011.0
20260901114532 58 0 0.0 1.0 0.00 0.00 0.00 86 1011.0
20260901113033 57 0 0.0 0.0 0.00 0.00 0.00 86 1011.0
20260901111540 57 0 0.0 1.0 0.00 0.00 0.00 87 1010.9
20260901110042 57 0 0.0 1.0 0.00 0.00 0.00 87 1010.7
20260901104534 57 0 0.0 1.0 0.00 0.00 0.00 86 1010.6
20260901103033 57 0 0.0 0.0 0.00 0.00 0.00 85 1010.4
20260901101534 58 0 0.0 0.0 0.00 0.00 0.00 85 1010.4
20260901100036 58 0 0.0 1.0 0.00 0.00 0.00 84 1010.5
20260901094534 59 0 0.0 0.0 0.00 0.00 0.00 83 1010.3
20260901093038 59 0 0.0 0.0 0.00 0.00 0.00 82 1010.3
20260901091555 59 0 0.0 4.0 0.00 0.00 0.00 82 1010.1
20260901090034 60 0 0.0 1.0 0.00 0.00 0.00 81 1010.0
20260901084534 60 0 0.0 3.0 0.00 0.00 0.00 81 1009.9
20260901083036 60 0 0.0 3.0 0.00 0.00 0.00 82 1010.0
20260901081536 60 0 0.0 0.0 0.00 0.00 0.00 82 1010.1
20260901080033 60 0 0.0 0.0 0.00 0.00 0.00 81 1009.9
20260901074535 61 0 0.0 2.0 0.00 0.00 0.00 80 1009.9
20260901073034 61 0 0.0 3.0 0.00 0.00 0.00 79 1009.7
20260901071536 62 0 0.0 1.0 0.00 0.00 0.00 78 1009.6
20260901070037 63 0 0.0 1.0 0.00 0.00 0.00 77 1009.4
20260901064538 63 0 0.0 3.0 0.00 0.00 0.00 75 1009.3
20260901063037 64 0 0.0 4.0 0.00 0.00 0.00 73 1009.0
20260901061534 65 74 0.0 2.0 0.00 0.00 0.00 70 1008.8
20260901060035 67 0 0.0 2.0 0.00 0.00 0.00 67 1008.6
20260901054535 68 0 0.0 1.0 0.00 0.00 0.00 65 1008.3
20260901053037 69 0 0.0 0.0 0.00 0.00 0.00 67 1008.1
20260901051536 69 0 0.0 1.0 0.00 0.00 0.00 66 1008.0
20260901050035 68 0 0.0 0.0 0.00 0.00 0.00 67 1007.8
20260901044533 68 0 0.0 0.0 0.00 0.00 0.00 66 1007.8
20260901043038 69 0 0.0 0.0 0.00 0.00 0.00 64 1007.7
20260901041533 69 0 0.0 0.0 0.00 0.00 0.00 63 1007.4
20260901040044 69 0 0.0 0.0 0.00 0.00 0.00 63 1007.2
20260901034552 70 0 0.0 0.0 0.00 0.00 0.00 60 1007.2
20260901033050 72 0 0.0 0.0 0.00 0.00 0.00 57 1006.7
20260901031536 73 0 0.0 0.0 0.00 0.00 0.00 54 1006.3
20260901030032 74 0 0.0 0.0 0.00 0.00 0.00 52 1006.2
20260901024541 76 0 0.0 0.0 0.00 0.00 0.00 50 1006.3
20260901023037 77 0 0.0 0.0 0.00 0.00 0.00 47 1006.3
20260901021536 78 0 0.0 0.0 0.00 0.00 0.00 45 1006.3
20260901020035 79 0 0.0 0.0 0.00 0.00 0.00 44 1006.5
20260901014533 80 0 0.0 0.0 0.00 0.00 0.00 44 1006.4
20260901013033 80 0 0.0 1.0 0.00 0.00 0.00 42 1006.3
20260901011536 81 0 0.0 0.0 0.00 0.00 0.00 43 1006.4
20260901010040 82 0 0.0 3.0 0.00 0.00 0.00 41 1006.5
20260901004538 83 0 0.0 3.0 0.00 0.00 0.00 38 1006.4
20260901003033 83 0 0.0 0.0 0.00 0.00 0.00 34 1006.4
20260901001535 83 0 0.0 0.0 0.00 0.00 0.00 33 1006.5
20260901000036 83 293 0.0 1.0 0.00 0.00 0.00 35 1006.6
20260831234539 83 0 0.0 1.0 0.00 0.00 0.00 34 1006.7
20260831233035 82 0 0.0 1.0 0.00 0.00 0.00 35 1006.7
20260831231534 82 0 0.0 1.0 0.00 0.00 0.00 39 1006.8
20260831230036 82 0 0.0 1.0 0.00 0.00 0.00 38 1006.9
20260831224534 82 0 0.0 1.0 0.00 0.00 0.00 38 1007.1
20260831223037 82 0 0.0 2.0 0.00 0.00 0.00 40 1007.2
20260831221536 82 0 0.0 1.0 0.00 0.00 0.00 40 1007.2
20260831220035 81 0 0.0 1.0 0.00 0.00 0.00 40 1007.3
20260831214542 81 0 0.0 1.0 0.00 0.00 0.00 40 1007.4
20260831213040 81 0 0.0 2.0 0.00 0.00 0.00 37 1007.6
20260831211531 82 0 0.0 2.0 0.00 0.00 0.00 37 1007.8
20260831210038 82 0 0.0 1.0 0.00 0.00 0.00 38 1007.9
20260831204547 81 0 0.0 2.0 0.00 0.00 0.00 40 1008.2
20260831203053 80 105 0.0 2.0 0.00 0.00 0.00 40 1008.4
20260831201532 79 0 0.0 1.0 0.00 0.00 0.00 44 1008.6
20260831200040 78 0 0.0 2.0 0.00 0.00 0.00 44 1008.8
20260831194536 77 0 0.0 2.0 0.00 0.00 0.00 45 1008.9
20260831193036 76 356 0.0 3.0 0.00 0.00 0.00 46 1009.0
20260831191533 75 0 0.0 3.0 0.00 0.00 0.00 49 1009.3
20260831190051 75 0 0.0 3.0 0.00 0.00 0.00 48 1009.7
20260831184534 74 0 0.0 4.0 0.00 0.00 0.00 51 1009.8
20260831183037 73 0 0.0 2.0 0.00 0.00 0.00 53 1009.8
20260831181549 71 0 0.0 2.0 0.00 0.00 0.00 55 1010.0
20260831180037 71 0 0.0 3.0 0.00 0.00 0.00 56 1010.1
20260831174540 69 0 0.0 2.0 0.00 0.00 0.00 60 1010.3